sat.trackr.live / text

‹ back to catalog

STARLINK-32512

NORAD 62027 · 2024-213V

PAYLOAD ACTIVE UNKNOWN

§ Identity

Operator
Country
US
Launch date
2024-11-18
Launch site
AFWTR
Launch vehicle
Mass (kg)
RCS (m²)

Purposes: comms

External: N2YO · Heavens-Above · Gunter

§ Orbital elements

Epoch: 2026-05-24T13:23:59.813088Z

Period
94.11 min
Inclination
53.1584°
Eccentricity
0.0001139
Mean motion
15.30194640 rev/d
Perigee alt
474.5 km
Apogee alt
476.0 km
Semi-major
6,853.4 km
B*
4.8340e-4
RAAN
175.5094°
Arg perigee
81.4210°
Mean anomaly
278.6920°
Rev number
8,477

§ Raw data

STARLINK-325121 62027U 24213V   26144.55833117  .00013982  00000+0  48340-3 0  99932 62027  53.1584 175.5094 0001139  81.4210 278.6920 15.30194640 84779

JSON: /api/v1/satellites/62027 · /tle

For live sub-satellite position, see the globe view (requires WebGL).

§ Visibility from observer

Set your observer location to see the next 7 days of passes ≥ 10°. The values pass through the URL so the page stays shareable.

No JS? Fill the form by hand. The geolocation button needs JavaScript.